RH
75 76 76 77 82 77 75 80 51 71 67 46 60 71 54 59 46 41 41 43 39 39 41 41 36 37 48 44 45 48 43 51 44 29 23 32 36 34 33 46 46 67 83 63
78 79 78 80 81 77 86 86 79 71 60 38 73 66 58 54 46 45 41 44 43 43 42 41 42 45 50 49 46 54 51 43 40 23 31 34 41 36 35 38 47 59 77 54
77 78 77 79 78 73 86 84 82 75 78 76 67 63 61 58 52 52 50 51 50 48 46 50 50 48 53 54 46 54 58 56 44 40 27 32 43 40 37 42 54 47 47 44
79 79 78 78 76 68 76 93 93 78 83 74 68 64 62 59 60 55 51 56 54 56 57 57 56 63 58 52 48 54 55 57 53 48 49 51 51 48 44 47 45 51 43 36
80 80 80 81 76 69 86 95 89 76 74 70 66 69 69 66 60 53 57 60 58 54 58 53 60 62 58 57 53 46 55 54 55 61 51 51 54 47 43 43 41 41 42 42
80 79 80 83 76 69 84 94 85 84 77 69 65 67 67 64 57 64 56 60 61 62 55 54 55 53 53 50 53 52 57 59 64 68 45 48 63 40 35 37 36 39 45 36
80 81 84 84 79 79 83 92 86 90 85 63 62 66 62 63 62 60 64 62 60 54 53 51 56 61 59 58 57 52 52 55 64 80 63 90 38 35 35 38 34 31 30 29
84 83 85 83 79 79 94 93 92 91 92 68 68 68 70 69 67 64 63 58 54 59 53 67 74 65 48 48 61 59 61 65 82 89 74 50 44 36 37 40 38 32 31 28
85 84 84 83 77 75 92 96 89 94 94 83 64 67 66 65 66 70 69 60 59 60 67 80 84 78 55 54 43 45 64 69 77 87 91 80 36 34 32 37 54 28 26 34
85 84 84 84 82 76 87 96 88 86 94 74 72 74 74 73 75 60 69 62 63 69 83 89 93 81 56 62 53 43 46 55 80 73 88 61 38 34 34 60 50 36 38 42
82 81 82 82 80 76 87 91 91 86 92 74 70 67 75 75 68 69 62 68 75 84 87 86 84 89 61 74 52 51 57 69 72 61 79 82 32 36 52 41 41 45 45 45
82 80 79 77 77 79 86 95 92 82 92 84 74 67 62 59 59 58 68 65 71 77 86 89 88 94 90 76 78 48 67 55 56 59 47 37 39 44 36 37 40 39 42 42
78 79 80 82 82 80 85 97 97 96 98 97 97 90 77 74 60 62 77 79 63 71 74 91 91 97 83 86 67 56 48 46 60 61 50 44 41 38 37 37 43 38 35 34
81 82 85 86 87 86 85 98 97 95 98 100 88 75 83 73 74 60 56 71 76 76 86 98 96 96 78 86 70 72 58 57 62 64 57 50 46 42 44 43 41 42 39 40
83 84 87 88 88 88 94 98 97 92 98 99 95 84 76 77 82 78 70 69 73 87 100 100 96 89 90 84 84 87 58 61 82 89 85 97 92 90 90 86 66 48 47 45
83 84 85 87 87 89 95 99 96 95 95 100 98 80 80 79 86 89 88 79 79 96 100 97 95 80 91 97 91 47 47 73 88 97 98 98 89 75 69 84 94 93 74 58
86 86 82 87 90 93 96 93 89 93 95 100 96 92 74 76 88 91 93 89 92 91 99 100 94 91 98 98 87 61 76 90 82 83 87 89 71 85 78 88 88 78 86 95
84 89 83 87 91 88 95 92 93 93 96 100 98 88 85 74 91 96 89 96 97 100 100 100 99 89 100 96 73 77 76 82 72 72 71 80 88 93 90 89 90 90 96 95
83 88 85 91 94 100 97 82 92 97 95 100 99 93 84 78 92 94 99 97 100 97 100 97 95 92 96 84 95 93 92 95 96 84 70 74 95 92 79 79 87 99 100 98
86 94 96 100 98 83 91 98 100 100 100 100 98 80 89 82 91 92 95 99 97 96 88 98 100 86 78 79 85 92 90 90 93 93 90 90 96 97 96 96 98 96 97 95
95 100 100 95 90 97 100 100 99 98 96 95 96 87 85 81 89 87 90 92 93 94 83 94 90 83 87 83 89 89 88 90 92 93 95 93 93 95 96 95 95 93 93 95
97 95 92 98 99 100 99 96 89 90 87 89 92 86 78 88 93 98 100 94 95 89 87 94 90 88 80 90 91 88 89 93 91 91 94 95 88 92 92 94 95 95 95 95
95 98 99 100 98 98 95 96 88 95 87 91 96 98 93 97 99 100 100 96 91 82 95 86 82 83 81 90 90 92 88 88 88 92 91 94 96 94 95 95 96 96 95 96
100 100 99 98 96 88 86 81 86 86 89 94 94 100 100 100 98 93 94 82 88 93 95 87 83 83 87 91 92 91 96 93 93 94 92 93 93 95 94 95 96 92 94 96
99 100 98 96 86 89 90 88 92 92 90 96 100 100 95 97 91 92 85 95 86 77 82 82 89 88 92 97 97 96 94 94 94 91 93 92 90 90 94 95 94 90 92 93
100 99 98 96 94 96 97 94 90 90 96 95 90 94 95 92 86 91 83 78 79 77 83 90 86 91 96 98 93 90 86 84 84 82 78 81 85 83 86 85 85 93 90 91
99 98 94 95 94 93 92 95 94 90 96 96 91 93 83 86 90 86 70 88 79 89 94 88 82 89 94 94 87 88 79 75 71 70 69 71 68 67 68 77 74 73 77 90
Wind_Speed
7 8 12 13 13 3 8 3 3 4 4 7 2 3 5 0 3 5 4 4 3 3 2 1 0 2 3 7 4 3 4 3 6 7 13 8 6 6 6 5 5 4 6 15
7 10 14 13 11 7 4 3 1 3 3 5 2 1 2 3 2 4 3 2 1 1 3 1 1 2 4 10 5 4 6 1 8 8 4 2 2 3 5 12 7 12 11 11
9 12 12 13 12 4 5 4 3 5 5 2 5 5 2 3 4 4 5 3 3 3 2 5 1 0 3 6 5 9 3 6 12 13 16 14 23 23 19 16 12 16 23 31
10 12 13 14 12 3 5 3 2 1 2 2 5 3 2 5 4 2 4 4 5 3 2 1 3 1 5 4 4 2 3 8 12 18 14 16 24 27 19 21 24 24 29 28
9 12 12 14 11 4 6 4 5 3 2 2 5 3 1 3 3 2 2 6 3 1 5 6 6 3 2 4 3 3 2 12 10 22 14 20 29 26 24 26 27 29 28 30
10 11 12 13 14 6 3 0 2 4 2 2 3 2 3 3 4 5 6 7 5 6 6 3 2 7 9 11 11 11 9 9 11 24 15 20 20 17 17 18 20 19 20 23
8 9 11 14 16 9 3 2 3 5 2 1 4 5 3 5 3 5 5 4 1 0 2 5 8 10 14 14 17 14 13 13 8 13 13 13 10 5 16 20 20 17 16 20
9 9 10 11 15 13 4 2 3 3 3 2 4 8 5 5 2 1 1 2 3 1 3 2 4 3 2 3 8 10 16 8 5 6 11 20 18 14 15 5 13 10 15 16
8 8 8 9 12 11 4 2 2 4 6 5 4 5 3 4 2 0 1 1 3 2 1 1 2 2 2 2 5 1 6 11 7 6 11 19 13 7 6 11 18 9 20 13
7 7 6 6 9 10 2 3 3 5 3 2 2 3 5 6 3 2 2 1 2 1 2 2 3 3 2 3 3 3 5 4 13 12 13 12 13 17 15 15 19 7 1 4
5 4 3 3 5 3 4 2 3 4 2 3 3 3 4 4 3 4 3 1 1 1 3 3 2 2 2 3 7 6 7 6 7 8 10 14 12 8 14 16 11 6 9 10
3 0 1 2 1 2 5 3 1 2 2 2 2 4 3 5 7 5 3 2 4 4 3 1 1 3 3 5 7 4 7 10 7 11 12 13 9 14 16 18 21 23 21 21
1 2 4 4 5 5 5 1 2 1 1 1 3 8 7 7 8 4 4 3 5 3 1 3 1 6 3 4 7 11 8 13 15 20 20 28 23 25 24 22 22 22 21 20
2 3 5 6 7 8 11 2 3 2 1 1 4 1 5 5 12 12 10 3 3 3 1 2 4 4 5 4 10 14 13 14 18 24 28 26 22 22 23 22 22 22 21 19
3 3 5 8 9 11 4 2 3 2 1 1 5 6 5 4 11 15 13 10 6 2 2 4 4 3 3 5 6 11 5 8 11 22 25 21 23 20 21 23 24 20 18 18
4 5 5 8 3 12 3 2 2 3 3 2 4 3 2 2 6 8 9 7 5 3 3 3 3 3 3 5 5 12 12 15 18 17 21 27 28 28 26 24 23 24 23 21
5 6 5 3 14 3 3 4 1 8 4 1 4 4 1 0 4 2 3 6 3 4 3 4 3 3 5 4 8 14 17 18 22 18 22 29 22 25 26 23 21 23 18 15
6 6 4 6 3 3 1 1 6 6 2 1 2 4 3 2 2 3 2 3 3 4 2 2 3 2 4 6 9 19 19 21 19 23 23 24 28 27 23 15 11 13 10 8
5 2 4 3 1 1 3 5 10 1 2 2 3 3 3 0 1 2 2 2 3 3 3 3 2 2 6 3 13 16 18 16 21 26 24 27 25 17 17 7 5 5 6 14
5 1 1 1 4 4 8 3 3 4 3 4 4 2 3 1 1 2 2 1 2 3 3 2 3 4 2 8 10 10 15 17 17 18 24 26 24 18 13 9 8 14 14 15
1 2 2 2 7 2 1 3 3 2 4 4 3 8 4 3 2 2 2 2 1 2 1 3 3 3 2 10 10 10 12 13 14 13 13 16 16 16 16 17 17 16 16 16
2 0 1 1 2 2 3 4 3 5 6 3 4 4 4 1 2 2 2 1 2 4 1 2 3 2 4 7 8 10 11 12 13 14 15 17 19 16 15 15 16 16 16 17
2 2 3 4 4 5 6 8 5 4 4 5 4 5 4 3 3 2 2 4 4 1 3 4 3 0 3 4 5 6 8 10 12 13 14 14 17 18 17 16 14 16 17 15
4 5 6 6 5 7 7 5 4 4 3 7 5 3 2 2 3 2 3 2 1 3 3 5 3 0 1 2 3 5 7 10 10 11 12 13 14 15 15 14 12 14 16 14
5 5 7 8 4 2 1 2 2 2 5 7 3 2 2 2 2 3 3 4 4 5 5 2 3 3 2 2 4 5 5 6 8 9 10 11 12 13 14 13 13 14 14 15
5 7 5 3 2 2 3 3 3 4 5 2 1 3 3 3 3 5 5 3 6 3 2 3 5 5 3 3 4 5 5 7 8 9 10 11 11 13 14 14 14 12 12 13
6 6 5 2 1 4 4 5 4 4 5 3 2 4 6 2 3 4 5 6 3 3 4 4 6 6 6 4 6 5 6 7 8 9 9 10 10 10 12 14 12 13 13 11
Wind_Direction
70 52 48 22 11 356 55 97 70 316 4 58 56 113 139 246 10 23 48 74 76 136 164 125 24 97 57 351 338 30 5 320 286 285 280 299 221 265 259 246 279 288 297 265
61 50 47 19 9 37 121 80 340 330 65 118 95 151 82 86 56 43 63 96 31 334 133 87 195 94 125 27 42 41 3 31 310 288 151 103 22 314 310 315 285 261 263 263
59 52 40 35 9 51 86 98 64 348 45 57 120 131 137 116 40 65 61 86 69 75 63 29 142 36 74 344 347 317 216 217 235 256 280 297 284 279 287 289 273 277 256 281
53 43 33 35 10 39 90 25 108 331 103 55 112 94 135 140 128 84 51 66 61 90 133 310 231 83 357 331 296 298 235 262 255 262 280 289 282 279 285 270 266 259 278 272
48 41 26 25 18 68 76 118 131 63 59 24 94 29 96 134 125 98 77 118 127 118 199 225 204 163 201 232 315 286 238 275 281 274 275 275 278 281 276 267 264 257 258 267
56 40 30 25 23 66 90 25 81 96 318 114 119 127 133 152 138 39 104 133 175 220 238 212 232 244 234 238 241 256 264 271 278 277 292 295 286 283 275 270 260 268 268 272
75 57 41 31 38 58 108 120 95 88 161 208 135 132 114 127 104 136 158 152 195 29 349 284 258 254 252 249 252 238 250 260 257 284 300 267 265 304 300 285 281 288 280 273
87 70 54 40 48 51 70 93 92 105 106 150 123 132 122 123 98 148 188 208 220 112 306 274 332 337 313 240 227 229 222 232 255 262 260 278 294 277 275 294 302 294 293 288
97 78 64 55 40 43 73 58 78 93 119 233 127 137 147 145 144 40 227 232 292 165 191 202 126 272 286 287 317 284 182 212 228 254 278 281 297 258 266 323 288 292 285 304
95 83 73 67 61 47 89 76 48 82 111 247 169 168 167 142 125 142 286 253 149 279 174 191 194 241 281 262 253 256 253 237 240 254 261 268 266 258 274 274 279 309 207 11
88 74 71 73 90 91 68 51 29 99 122 265 206 205 137 118 155 170 160 90 243 170 180 198 210 200 252 280 249 271 274 287 272 270 257 272 232 243 231 261 283 281 284 293
110 4 304 35 357 151 78 59 23 97 103 240 226 243 264 194 177 156 172 277 185 188 133 211 100 231 248 269 281 243 256 217 261 236 255 272 261 265 273 280 281 283 286 294
136 312 312 292 259 225 173 146 135 78 255 285 255 235 243 212 205 158 151 237 224 176 163 133 240 246 200 250 256 276 256 255 255 278 252 264 265 265 265 269 269 271 272 276
248 281 287 284 275 241 199 179 174 164 93 358 285 319 236 218 190 202 211 122 89 98 101 166 224 238 193 247 270 280 271 292 265 270 277 284 270 270 270 268 261 261 262 262
238 258 283 267 271 238 204 203 187 170 94 343 278 287 251 205 185 199 195 200 199 124 187 212 233 231 259 233 262 263 218 269 282 287 303 289 295 296 290 279 272 260 252 262
283 303 297 289 171 122 94 349 231 167 155 262 291 308 312 11 174 175 179 182 188 189 206 226 234 240 230 253 252 274 332 330 307 300 303 294 291 289 288 279 270 261 257 245
3 352 8 122 146 109 133 188 253 153 121 151 285 285 270 329 125 141 152 177 174 206 223 221 238 215 215 249 265 332 332 319 310 308 315 304 295 297 293 281 273 273 272 290
26 15 72 115 159 52 39 222 129 135 111 202 262 265 316 209 160 138 180 147 168 204 229 241 236 229 220 258 322 332 331 325 316 327 318 302 299 294 286 274 267 268 250 263
25 61 94 87 99 166 225 177 168 127 188 256 207 230 242 16 139 96 145 182 198 174 225 225 204 223 231 334 338 333 333 333 323 325 329 331 334 6 31 39 294 248 120 107
1 138 103 232 221 188 116 79 172 204 213 213 229 191 244 142 354 104 140 214 238 242 204 232 234 254 100 16 355 332 333 333 333 342 344 341 353 6 16 26 68 98 95 96
231 151 208 247 135 91 125 202 216 168 242 214 220 199 182 196 168 205 200 156 271 258 154 256 261 253 353 355 349 344 345 341 345 354 351 357 10 20 33 44 58 71 83 90
319 200 258 111 203 171 197 195 182 215 236 198 183 191 192 178 143 123 172 223 173 251 96 239 252 167 355 349 343 348 353 351 359 13 15 20 29 32 51 58 66 72 78 82
282 217 203 189 178 196 198 200 195 213 203 174 166 169 162 184 208 163 188 208 221 123 230 241 243 43 345 359 355 348 4 13 19 25 30 35 45 46 52 61 63 76 80 86
234 192 207 213 189 221 201 196 180 208 149 158 172 125 177 119 148 162 217 190 206 236 231 239 181 169 344 32 31 36 12 26 30 32 37 43 48 53 56 61 66 75 78 81
238 209 224 209 204 226 268 187 152 195 152 142 145 106 126 127 179 198 213 206 232 230 235 197 154 151 144 82 61 62 45 45 47 49 49 54 60 64 66 62 73 77 80 82
239 227 224 162 137 220 193 192 183 171 149 86 152 142 159 195 200 185 209 226 226 227 198 148 148 157 151 148 123 109 88 77 76 74 73 70 70 79 77 73 69 71 79 85
225 218 218 192 227 228 188 169 193 170 141 172 137 186 204 122 202 215 197 217 224 157 152 150 164 157 169 163 131 121 110 101 95 92 90 91 95 95 89 87 87 90 86 82